Weather History for KRPD - March, 2013

Change the Weather History Date:

Saturday, March 9, 2013

  Actual Average Record
Temperature  
Mean Temperature 32 °F -  
Max Temperature 33 °F 30 °F 50 °F (2015)
Min Temperature 30 °F 13 °F -9 °F (2003)
Degree Days  
Heating Degree Days 34    
Moisture  
Dew Point 31 °F    
Average Humidity 93    
Maximum Humidity 100    
Minimum Humidity 69    
Precipitation  
Precipitation 0.16 in - - ()
Sea Level Pressure  
Sea Level Pressure 29.89 in    
Wind  
Wind Speed 10 mph (SE)    
Max Wind Speed 17 mph    
Max Gust Speed 26 mph    
Visibility 3 miles    
Events Fog , Rain , Snow    
Averages and records for this station are not official NWS values.
T = Trace of Precipitation, MM = Missing Value Source: NWS Daily Summary

Daily Weather History Graph

Daily Weather History Graph

Search for Another Location

Airport or City:

Trip Planner

Search our weather history database for the weather conditions in past years. The results will help you decide how hot, cold, wet, or windy it might be!

Date:

Astronomy

Mar. 09, 2013 Rise Set
Actual Time 6:30 AM CST 6:05 PM CST
Civil Twilight 6:00 AM CST 6:34 PM CST
Nautical Twilight 5:26 AM CST 7:09 PM CST
Astronomical Twilight 4:52 AM CST 7:43 PM CST
Moon 4:59 AM CST (3/9) 4:04 PM CST (3/9)
Length of Visible Light 12h 34m
Length of Day
11h 35m
Waning Crescent, 5% of the Moon is Illuminated
Mar 9
Waning Crescent
Mar 11
New
Mar 19
First Quarter
Mar 27
Full
Apr 2
Last Quarter

Hourly Weather History & Observations

Time (CST) Temp. Windchill Dew Point Humidity Pressure Visibility Wind Dir Wind Speed Gust Speed Precip Events Conditions
12:15 AM 32.0 °F 22.1 °F 24.8 °F 75% 30.14 in 10.0 mi ESE 13.8 mph - N/A   Clear
12:35 AM 32.0 °F 23.0 °F 23.0 °F 69% 30.13 in 10.0 mi ESE 11.5 mph - N/A   Clear
12:55 AM 32.0 °F 23.6 °F 24.8 °F 75% 30.13 in 10.0 mi SE 10.4 mph 17.3 mph N/A   Clear
1:15 AM 32.0 °F 23.6 °F 23.0 °F 69% 30.13 in 10.0 mi ESE 10.4 mph - N/A   Mostly Cloudy
1:35 AM 32.0 °F 23.6 °F 23.0 °F 69% 30.13 in 10.0 mi ESE 10.4 mph - N/A   Overcast
1:55 AM 32.0 °F 24.2 °F 23.0 °F 69% 30.12 in 10.0 mi ESE 9.2 mph - N/A   Overcast
2:15 AM 32.0 °F 26.4 °F 23.0 °F 69% 30.11 in 10.0 mi ESE 5.8 mph - N/A   Mostly Cloudy
2:35 AM 32.0 °F 24.2 °F 24.8 °F 75% 30.10 in 10.0 mi SE 9.2 mph - N/A   Scattered Clouds
3:15 AM 32.0 °F 23.6 °F 24.8 °F 75% 30.08 in 10.0 mi SE 10.4 mph - N/A   Overcast
3:35 AM 32.0 °F 23.6 °F 24.8 °F 75% 30.07 in 10.0 mi ESE 10.4 mph - N/A   Overcast
3:55 AM 32.0 °F 23.6 °F 24.8 °F 75% 30.06 in 10.0 mi ESE 10.4 mph - N/A   Overcast
4:15 AM 32.0 °F 23.6 °F 24.8 °F 75% 30.06 in 7.0 mi ESE 10.4 mph - N/A Snow Light Snow
4:35 AM 32.0 °F 23.0 °F 26.6 °F 80% 30.06 in 4.0 mi ESE 11.5 mph - N/A Snow Light Snow
4:55 AM 30.2 °F 21.9 °F 26.6 °F 86% 30.05 in 1.5 mi ESE 9.2 mph - N/A Snow Light Snow
5:15 AM 30.2 °F 21.3 °F 28.4 °F 93% 30.04 in 1.0 mi ESE 10.4 mph - N/A Snow Light Snow
5:35 AM 30.2 °F 20.8 °F 28.4 °F 93% 30.03 in 1.2 mi ESE 11.5 mph - 0.01 in Snow Light Snow
6:15 AM 32.0 °F 23.0 °F 30.2 °F 93% 30.01 in 1.0 mi ESE 11.5 mph - 0.01 in Snow Light Snow
6:35 AM 32.0 °F 22.5 °F 30.2 °F 93% 30.00 in 0.5 mi ESE 12.7 mph 17.3 mph 0.02 in Snow Light Snow
6:55 AM 32.0 °F 22.1 °F 30.2 °F 93% 29.99 in 0.8 mi ESE 13.8 mph 18.4 mph 0.02 in Snow Light Snow
7:15 AM 32.0 °F 21.2 °F 32.0 °F 100% 29.98 in 1.0 mi ESE 16.1 mph 21.9 mph 0.01 in Snow Light Snow
7:35 AM 32.0 °F 23.0 °F 32.0 °F 100% 29.96 in 1.0 mi ESE 11.5 mph 17.3 mph 0.01 in Snow Light Snow
7:55 AM 32.0 °F 22.1 °F 32.0 °F 100% 29.95 in 2.0 mi SE 13.8 mph - 0.01 in Snow Light Snow
8:15 AM 32.0 °F 22.1 °F 32.0 °F 100% 29.94 in 2.5 mi ESE 13.8 mph 19.6 mph N/A Snow Light Snow
8:35 AM 32.0 °F 22.5 °F 32.0 °F 100% 29.94 in 4.0 mi SE 12.7 mph - N/A   Overcast
9:15 AM 32.0 °F 20.8 °F 32.0 °F 100% 29.92 in 3.0 mi SE 17.3 mph 26.5 mph N/A   Light Drizzle
9:35 AM 32.0 °F 22.1 °F 32.0 °F 100% 29.91 in 1.2 mi SE 13.8 mph 19.6 mph N/A Rain Light Rain
9:55 AM 32.0 °F 23.0 °F 32.0 °F 100% 29.90 in 2.5 mi SE 11.5 mph - N/A Rain Light Rain
10:15 AM 32.0 °F 22.5 °F 32.0 °F 100% 29.89 in 3.0 mi SE 12.7 mph - N/A   Overcast
10:35 AM 32.0 °F 23.0 °F 32.0 °F 100% 29.89 in 4.0 mi SE 11.5 mph - N/A   Overcast
10:55 AM 32.0 °F 23.0 °F 32.0 °F 100% 29.89 in 4.0 mi SE 11.5 mph - N/A   Overcast
11:15 AM 32.0 °F 23.6 °F 32.0 °F 100% 29.88 in 3.0 mi SE 10.4 mph - N/A   Overcast
11:35 AM 33.8 °F 25.8 °F 32.0 °F 93% 29.88 in 3.0 mi SE 10.4 mph - N/A   Overcast
11:55 AM 33.8 °F 27.0 °F 32.0 °F 93% 29.87 in 3.0 mi SE 8.1 mph - N/A   Overcast
12:15 PM 33.8 °F 26.4 °F 32.0 °F 93% 29.86 in 3.0 mi SE 9.2 mph - N/A   Overcast
12:35 PM 33.8 °F 25.8 °F 32.0 °F 93% 29.85 in 3.0 mi SE 10.4 mph - N/A   Overcast
1:15 PM 33.8 °F 26.4 °F 32.0 °F 93% 29.83 in 1.8 mi ESE 9.2 mph - N/A   Light Drizzle
1:35 PM 33.8 °F 25.8 °F 32.0 °F 93% 29.82 in 2.0 mi ESE 10.4 mph - N/A Rain Light Rain
1:55 PM 33.8 °F 25.8 °F 32.0 °F 93% 29.81 in 2.5 mi ESE 10.4 mph - 0.01 in Rain Light Rain
2:15 PM 33.8 °F 25.3 °F 32.0 °F 93% 29.79 in 2.5 mi SE 11.5 mph - 0.01 in Rain Light Rain
2:35 PM 33.8 °F 25.3 °F 32.0 °F 93% 29.79 in 2.5 mi SE 11.5 mph - 0.02 in Rain Light Rain
2:55 PM 33.8 °F 25.3 °F 32.0 °F 93% 29.77 in 2.0 mi ESE 11.5 mph - 0.03 in Rain Light Rain
3:15 PM 33.8 °F 25.3 °F 32.0 °F 93% 29.77 in 2.5 mi ESE 11.5 mph - 0.02 in Rain Light Rain
3:35 PM 33.8 °F 25.3 °F 32.0 °F 93% 29.77 in 2.0 mi SE 11.5 mph - 0.04 in Rain Rain
3:55 PM 33.8 °F 26.4 °F 33.8 °F 100% 29.75 in 2.0 mi ESE 9.2 mph - 0.06 in Rain Light Rain
4:15 PM 33.8 °F 26.4 °F 33.8 °F 100% 29.75 in 1.8 mi ESE 9.2 mph - 0.01 in Rain Rain
4:35 PM 33.8 °F 27.0 °F 33.8 °F 100% 29.75 in 1.8 mi SE 8.1 mph - 0.01 in Rain Light Rain
4:55 PM 33.8 °F 27.0 °F 33.8 °F 100% 29.75 in 1.8 mi ESE 8.1 mph - 0.01 in Rain Light Rain
5:15 PM 33.8 °F 26.4 °F 33.8 °F 100% 29.75 in 2.5 mi SE 9.2 mph - N/A   Light Drizzle
5:35 PM 33.8 °F 25.8 °F 33.8 °F 100% 29.75 in 2.0 mi ESE 10.4 mph - N/A   Light Drizzle
5:55 PM 33.8 °F 27.0 °F 33.8 °F 100% 29.74 in 2.0 mi ESE 8.1 mph - N/A   Drizzle
6:15 PM 33.8 °F 27.0 °F 33.8 °F 100% 29.76 in 2.0 mi SE 8.1 mph - N/A   Overcast
6:35 PM 33.8 °F 27.7 °F 33.8 °F 100% 29.75 in 1.8 mi SE 6.9 mph - N/A Rain Rain
6:55 PM 33.8 °F 29.6 °F 33.8 °F 100% 29.74 in 1.8 mi SE 4.6 mph - N/A   Light Drizzle
7:15 PM 33.8 °F 27.7 °F 33.8 °F 100% 29.74 in 2.5 mi ESE 6.9 mph - N/A   Overcast
7:35 PM 33.8 °F 29.6 °F 33.8 °F 100% 29.74 in 2.5 mi ESE 4.6 mph - N/A   Overcast
8:15 PM 33.8 °F 28.6 °F 33.8 °F 100% 29.75 in 1.5 mi SE 5.8 mph - N/A   Overcast
8:35 PM 33.8 °F 29.6 °F 33.8 °F 100% 29.76 in 1.2 mi SE 4.6 mph - N/A   Drizzle
8:55 PM 33.8 °F 29.6 °F 33.8 °F 100% 29.76 in 1.0 mi SE 4.6 mph - N/A Rain Rain
9:15 PM 33.8 °F 30.8 °F 33.8 °F 100% 29.76 in 1.2 mi ESE 3.5 mph - 0.01 in   Drizzle
9:35 PM 33.8 °F 29.6 °F 33.8 °F 100% 29.76 in 1.0 mi SE 4.6 mph - 0.01 in Rain Rain
9:55 PM 33.8 °F - 33.8 °F 100% 29.76 in 1.0 mi Calm Calm - 0.01 in Rain Light Rain
10:15 PM 33.8 °F - 33.8 °F 100% 29.76 in 1.0 mi Calm Calm - N/A   Overcast
10:35 PM 33.8 °F - 33.8 °F 100% 29.77 in 0.5 mi Calm Calm - N/A Fog Fog
10:55 PM 33.8 °F - 33.8 °F 100% 29.76 in 0.2 mi Calm Calm - N/A Fog Fog
11:35 PM 33.8 °F - 33.8 °F 100% 29.77 in 0.2 mi Calm Calm - N/A Fog Fog